Погода в Смидовиче

Погода в Смидовиче : погода сейчас, прогноз погоды и архив. Всё, что Вы хотите узнать о погоде в Смидовиче!

Поиск расширенной информации на нашем сайте:

Другие новости

Новости СМИ2

Главная страница сайта

Новости сайта

03.07.2017

Напоминаем, что на нашем специализированном сайте Метеоцентр.Азия вы можете получить высокодетализированные автоматические прогнозы погоды по пунктам России, СНГ и мира в авиационном формате (включающие направление и скорость ветра, видимость, явления погоды, количество и форму облачности, нижнюю и верхнюю границу облачности).


Погода в Смидовиче - сегодня

Время (UTC), дата Ветер
(°,м/с) 
Видим.   Явления Облачность Т
(°С)
Тd
(°С)
f(%) Тe
(°С)
Pmin
(гПа)
dP
(гПа)
Po
(мм)
O2
(г/м3)
Тmin Tmax R s Состояние
почвы
06 16.10.17 250 (З) 20000 м    10/4 300 м верхняя 
[Sc|Ci]
+9.2 -11 23 +8  1022.2  -2.5  762  298           
09 16.10.17 220 (ЮЗ) 20000 м    10/8 600 м кучево-дожд., средняя 
[Cb cap|Ac und]
+5.3 -9.2 34 +4  1022.1  -0.2  762  302    +9.8       
12 16.10.17 210 (ЮЗ) 20000 м    10/0 средняя 
[Ac und]
+1.7 -6.5 54 +1  1021.6  -0.6  761  306           
15 16.10.17 240 (ЮЗ) 20000 м    10/0 средняя 
[Ac As]
+0.7 -1.4 86 +1  1020.5  -1.1  761  306           
18 16.10.17 260 (З) 4000 м  слаб. ливневой снег  10/10 600 м кучево-дожд. 
[Cb cap]
+0.1 -1.6 88 -2  1019.1  -1.3  760  306           
21 16.10.17 230 (ЮЗ) 20000 м  {ливн. осадки}  5/5 300 м 
[Sc]
-3.9 -5.3 90 -5  1018.9  -0.3  759  311  -4.5    0.0  <0.5  равномерный
сухой снег
100% 
00 17.10.17 300 (СЗ) 20000 м  {ливн. осадки}  6/3 300 м средняя, верхняя 
[Sc diur, vesp|Ac lent|Ci sp]
+0.3 -2.5 81 -2  1020.2  1.4  760  306           
03 17.10.17 320 (СЗ) 20000 м    6/6 600 м 
[Sc diur, vesp]
+7.4 -6.8 36 +6  1021.2  1.2  761  299           
06 17.10.17 310 (СЗ) 5{12}  20000 м    3/3 600 м 
[Sc diur, vesp]
+7.1 -15.8 18 +5  1021.7  0.5  762  300           
09 17.10.17 300 (СЗ) 5{12}  20000 м    ясно 
+1.8 -13.4 31 -1  1024.5  2.6  764  307    +8       
12 17.10.17 270 (З) 20000 м    ясно 
-1.3 -13 41 -1  1026.3  1.8  765  311           
15 17.10.17 220 (ЮЗ) 20000 м    ясно 
-6 -11.7 64 -6  1027.5  1.1  766  317           
18 17.10.17 270 (З) 20000 м    ясно 
-4.1 -12.3 53 -6  1027.7  0.2  766  314           
21 17.10.17 270 (З) 20000 м    ясно 
-4.8 -12.8 53 -7  1028  0.3  766  315  -6.6        замёрзшая 
00 18.10.17 280 (З) 20000 м    10/0 верхняя 
[Ci fib]
-0.3 -12.7 39 -2  1028.4  0.6  767  310           
03 18.10.17 280 (З) 20000 м    ясно 
+3.7 -15 24 +2  1027.5  -0.8  766  306           
06 18.10.17 260 (З) 20000 м    8/0 верхняя 
[Ci fib]
+4.8 -17.5 18 +4  1026.2  -1.3  765  304           
09 18.10.17 140 (ЮВ) 20000 м    10/0 верхняя 
[Ci fib]
-1.7 -12.9 42 -1  1025.5  -0.9  764  311    +5.3       
12 18.10.17 150 (ЮВ) 20000 м    10/0 верхняя 
[Ci fib]
-5.4 -9.1 75 -7  1024.8  -0.7  764  315           
15 18.10.17 150 (ЮВ) 20000 м    10/0 верхняя 
[Ci fib]
-3.7 -6.2 83 -3  1024  -0.8  763  312           
18 18.10.17 120 (ЮВ) 20000 м    10/0 верхняя 
[Ci fib]
-3.1 -6.1 80 -4  1022.9  -1.1  762  311           
21 18.10.17 040 (СВ) 20000 м    10/0 верхняя 
[Ci fib]
-2.8 -6.5 76 -4  1021.5  -1.3  761  311  -5.4        замёрзшая 
00 19.10.17 050 (СВ) 4000 м  мгла  10/0 средняя, верхняя 
[Ac lent|Ci sp]
+0.1 -7.2 58 -1  1021.2  -0.3  761  307           
03 19.10.17 070 (В) 20000 м    ясно 
+7.1 -10.3 28 +6  1019.9  -1.1  760  300           
06 19.10.17 050 (СВ) 20000 м    ясно 
+8 -10.4 26 +7  1018.9  -1  760  298           
Время (UTC), дата Ветер
(°,м/с) 
Видим.   Явления Облачность Т
(°С)
Тd
(°С)
f(%) Тe
(°С)
Pmin
(гПа)
dP
(гПа)
Po
(мм)
O2
(г/м3)
Тmin Tmax R s Состояние
почвы

Для получения пояснительной информации подведите курсор к названию столбца.

ПОГОДА в Смидовиче - архив

Всё, что Вы хотите узнать о погоде в Смидовиче - удобно и подробно!

Выберите нужную дату (начиная с 1 января 2015* года) и нажмите кнопку "Найти".
Будут отображены архивные сводки погоды по пункту Смидович, начиная с указанной даты.


Отображать данные в формате CSV (для использования в таблицах Excel)


Внимание! Наш архив погоды предназначен исключительно для личного некоммерческого использования в познавательных целях. Если Вам необходимы официальные справки о состоянии погоды (для производственных, юридических, коммерческих и т.п. целей), обращайтесь в органы Росгидромета.

*Примечание: данная дата относится к архиву по метеостанциям СССР (Россия, СНГ, Балтия).
Архив по метеостанциям Зарубежной Европы и Азии (кроме Китая) хранится 10 дней, по другим регионам земного шара (Китай, Африка, Америка, Австралия, Океания) - 1 день.

Смидович - район местоположения метеостанции


Название, широта, долгота, высота метеостанции:
Смидович 48.6°ш. 133.8°д. 52 м над ур. моря [Российская Федерация]

Дополнительная информация

В oтличие oт бoльшинства пoгoдных сайтoв мы публикуем пoдрoбную метеoинфoрмацию в детальнoм прoфессиoнальнoм фoрмате.

Характеристики температуры и влажнoсти вoздуха измеряются на высoте 2 м в тени вдали oт зданий и деревьев.
Скoрoсть ветра измеряется на высoте 10 м (на урoвне рoста челoвека скoрoсть ветра ниже в 1.5-2 раза). Если метеoстанция нахoдится в гoрoде или в лесу, тo скoрoсть ветра занижена на 2-4 м/с пo сравнению с oткрытым местoм. Скoрoсть ветра над акватoриями крупных рек и oзёр, а также на вершинах хoлмoв на 2-5 м/с выше, чем в oбычных услoвиях.
Атмoсфернoе давление в разных тoчках местнoсти мoжет значительнo oтличаться oт давления на метеoстанции, в зависимoсти oт услoвий рельефа (при пoдъёме на 10 м давление пoнижается примернo на 1 мм рт.ст.).